Location: Tel Aviv
(32.0670°N, 34.7670°E)
Time: 04:50:53
(UTC+03:00)

Vanguard 2 - Pass Details

Date: 27 January 2022
Orbit: 552 x 2935 km, 32.9° (Epoch: 25 May)

Event Time Altitude Azimuth Distance (km) Brightness Sun altitude
Rises 21:44:22 0° 274° (W) 4,434 11.9 -57.8°
Reaches altitude 10° 21:46:51 10° 275° (W) 3,716 11.3 -58.3°
Enters shadow 21:48:58 21° 276° (W) 3,160 10.8 -58.8°
Maximum altitude 21:57:15 88° 5° (N) 2,168 - -60.4°
Drops below altitude 10° 22:13:51 10° 97° (E) 5,620 - -63.6°
Sets 22:18:35 0° 98° (E) 6,751 - -64.5°
